Regional Weather Roundup
Issued by NWS Bismarck, ND

Home | Current Version | Previous Version | Text Only | Print | Product List | Glossary On
Versions: 1 2 3 4 5 6 7 8 9 10 11 12 13 14 15 16 17 18 19 20 21 22 23 24 25 26 27 28 29 30 31 32 33 34 35 36 37 38 39 40 41 42 43 44 45 46 47 48 49 50
000
ASUS43 KBIS 301910
RWRBIS

NWR BROADCAST TEXT
NATIONAL WEATHER SERVICE BISMARCK ND
200 PM CDT TUE SEP 30 2014

NOTE: "FAIR" INDICATES FEW OR NO CLOUDS BELOW 12,000 FEET WITH NO
SIGNIFICANT WEATHER AND/OR OBSTRUCTIONS TO VISIBILITY.


CITY           SKY/WX    TMP DP  RH WIND       PRES   REMARKS
WILLISTON      CLOUDY    56  53  90 E8        29.59F
MINOT          LGT RAIN  49  47  93 E17G23    29.65F
MINOT AFB      LGT RAIN  49  49 100 E16G23    29.65F
BISMARCK       CLOUDY    55  53  93 E15       29.58F
DICKINSON      CLOUDY    53  51  93 E14       29.53F FOG
GARRISON         N/A     51  50  96 E13       29.61F
HETTINGER ARPT LGT RAIN  53  51  93 NE18      29.49F FOG
JAMESTOWN      LGT RAIN  51  48  89 SE17G26   29.67F
BEACH            N/A     54  54 100 NE5       29.57F
CARRINGTON     CLOUDY    50  50 100 SE17G25   29.69F
CROSBY         CLOUDY    52  52 100 E10       29.61F FOG
HARVEY         LGT RAIN  48  48 100 E15       29.66F
HAZEN          MOCLDY    50  48  93 E12G17    29.59F
LINTON         CLOUDY    55  55 100 E21G32    29.53F FOG
MANDAN         CLOUDY    54  52  94 E15       29.57F
OAKES            N/A     50  50 100 E28G36    29.69F
RUGBY          CLOUDY    50  48  93 SE20G25   29.70F
STANLEY        CLOUDY    48  48 100 E14G20    29.63F
TIOGA          MOCLDY    50  50 100 SE9       29.64F
WATFORD CITY   CLOUDY    54  54 100 E12       29.57F
$$

CITY           SKY/WX    TMP DP  RH WIND       PRES   REMARKS
GRAND FORKS    PTSUNNY   57  44  62 SE18      29.79F
GRAND FORKS AF PTSUNNY   58  46  65 SE15G23   29.79F
DEVILS LAKE    CLOUDY    50  43  76 SE18G26   29.72F
FARGO          PTSUNNY   59  44  57 SE16G24   29.79F
CANDO          CLOUDY    50  46  87 SE16G28   29.74F
CAVALIER       FAIR      55  46  71 SE14G22   29.81F
GRAFTON        FAIR      57  46  67 SE17G23   29.81F
GWINNER        CLOUDY    52  50  93 E25G32    29.74F
LANGDON        CLOUDY    48  45  87 SE24G30   29.77F
ROLLA          CLOUDY    46  46 100 SE15G24   29.74F
WALHALLA       CLOUDY    54  50  87 SE13G21   29.80F
$$

CITY           SKY/WX    TMP DP  RH WIND       PRES   REMARKS
ABERDEEN       CLOUDY    61  55  81 SE25G32   29.62F
MOBRIDGE       CLOUDY    66  58  75 E21G33    29.42F
BUFFALO          N/A     53  51  93 N12       29.45F
RAPID CITY     CLOUDY    60  55  83 NW14G20   29.50R
GLASGOW        PTSUNNY   61  51  70 CALM      29.60S
SIDNEY         CLOUDY    55  54  94 E3        29.60F
WOLF POINT     CLOUDY    59  53  80 W5        29.59F
GLENDIVE       CLOUDY    55  54  94 NW10      29.58F
MILES CITY     CLOUDY    58  50  75 W10       29.60F
BAKER          CLOUDY    55  53  93 NW8       29.56F
$$

CITY           SKY/WX    TMP DP  RH WIND       PRES   REMARKS
BILLINGS       CLOUDY    61  42  49 NW18G26   29.70S
GREAT FALLS    CLOUDY    58  45  62 SW16      29.71R
REGINA         CLOUDY    57  52  82 S16       29.60F
ESTEVAN        LGT RAIN  50  50 100 E12       29.63F FOG
$$



USA.gov is the U.S. government's official web portal to all federal, state and local government web resources and services.